YAMAL 202

Last updated on Thu Oct 30 2025 00:02:47 GMT+0000 (Coordinated Universal Time)

1 28089U 03053A 25302.17837551 -.00000067 00000+0 00000+0 0 9999 2 28089 5.7582 73.7366 0006826 157.6234 34.1885 1.00267209 80383
UTC large
Height (km)
Speed (km/s)
/
Latitude / Longitude
Inclination (degrees)
Orbital Period (minutes)
Azimuth
Elevation
Range (km)
Doppler Factor

Next 0 passes for location: London (51.5072 / 0.1276)

Sorry there are no passes over London.